Location: Newark
(12.4436°N, 0.6167°W)
Time: 04:47:56
(UTC+00:00)

Vanguard 1 - Pass Details

Date: 17 December 2019
Orbit: 650 x 3833 km, 34.2° (Epoch: 27 January)

Event Time Altitude Azimuth Distance (km) Brightness Sun altitude
Rises 05:20:41 0° 291° (WNW) 7,758 - -13.4°
Reaches altitude 10° 05:26:46 10° 299° (WNW) 6,890 - -12.0°
Exits shadow 05:27:58 12° 301° (WNW) 6,723 13.6 -11.8°
Maximum altitude 05:47:53 38° 2° (N) 4,600 13.3 -7.2°
Drops below altitude 10° 06:03:53 10° 66° (ENE) 5,348 14.5 -3.6°
Sets 06:07:50 0° 74° (ENE) 5,956 15.0 -2.8°
